Location: Martz Observatory
(42.0083°N, 79.0667°W)
Time: 09:43:48
(UTC-04:00)

Cosmos 2219 Rocket - Pass Details

Date: 26 May 2018
Orbit: 830 x 845 km, 71.0° (Epoch: 17 June)

Event Time Altitude Azimuth Distance (km) Brightness Sun altitude
Rises 00:52:30 0° 320° (NW) 3,379 6.2 -26.7°
Reaches altitude 10° 00:55:35 10° 304° (WNW) 2,441 5.0 -26.7°
Maximum altitude 00:59:23 19° 260° (W) 1,878 3.9 -26.8°
Enters shadow 00:59:26 19° 260° (W) 1,878 3.9 -26.8°
